Regional Weather Roundup
Issued by NWS

Home | Current Version | Previous Version | Graphics & Text | Print | Product List | Glossary On
Versions: 1 2 3 4 5 6 7 8 9 10 11 12 13 14 15 16 17 18 19 20 21 22 23 24 25 26 27 28 29 30 31 32 33 34 35 36 37 38 39 40 41 42 43 44 45 46 47 48 49 50
000
ASUS43 KLOT 150706
RWRIL

ILLINOIS REGIONAL WEATHER ROUNDUP
NATIONAL WEATHER SERVICE CHICAGO/ROMEOVILLE IL
200 AM CDT MON SEP 15 2014

NOTE: "FAIR" INDICATES FEW OR NO CLOUDS BELOW 12,000 FEET WITH NO
SIGNIFICANT WEATHER AND/OR OBSTRUCTIONS TO VISIBILITY.

* THESE STATIONS ARE NOT UNDER NWS QUALITY CONTROL. THEY ALSO MAY NOT
  REPORT WEATHER SUCH AS PRECIPITATION OR FOG.

ILZ001-002-007-009-015-016-024-150800-
NORTHWEST ILLINOIS

CITY           SKY/WX    TMP DP  RH WIND       PRES   REMARKS
MOLINE         MOCLDY    51  48  89 SE3       30.15F
STERLING*      PTCLDY    46  43  87 SE3       30.16F
SAVANNA*       CLEAR     48  46  92 CALM      30.16S
$$

ILZ003-004-008-010-011-017-018-150800-
NORTH CENTRAL ILLINOIS

CITY           SKY/WX    TMP DP  RH WIND       PRES   REMARKS
ROCKFORD       NOT AVBL
FREEPORT*      PTCLDY    46  44  91 CALM      30.17F
ROCHELLE*      MOCLDY    46  44  93 SE5       30.17F
DE KALB*       MOCLDY    47  44  88 S3        30.19S
PERU*          PTCLDY    52  48  86 E3        30.17F
$$

ILZ005-006-012>014-019>023-150800-
NORTHEAST ILLINOIS

CITY           SKY/WX    TMP DP  RH WIND       PRES   REMARKS
CHICAGO-OHARE  MOCLDY    52  46  80 CALM      30.18S
CHICAGO-MIDWAY MOCLDY    55  48  77 CALM      30.18S
AURORA         MOCLDY    49  44  83 CALM      30.19S
LANSING*       CLEAR     48  45  91 CALM      30.19S
JOLIET*        PTCLDY    48  47  95 CALM      30.19F
WAUKEGAN       MOCLDY    50  46  86 CALM      30.17R
DUPAGE AIRPORT MOCLDY    50  47  89 SE3       30.18S
KANKAKEE*      PTCLDY    47  46  98 CALM      30.20S
WHEELING       MOCLDY    52  47  83 S3        30.19S
MORRIS*        PTCLDY    49  49 100 CALM      30.18S
ROMEOVILLE*    PTCLDY    51  47  88 CALM      30.18F
NORTHERLY ISL    N/A     58  45  62 SW3         N/A
$$

LMZ740>746-150800-
SOUTHERN LAKE MICHIGAN

STATION/POSITION SKY/WX   TEMP    WIND        PRES    VSBY  WAVE
                          AIR SEA DIR/SP/G                  HT/PER
                          (F)     (DEG/KT/KT) (MB)    (MI)  (FT/S)
SOUTHERN BUOY              63 64  240/ 12/ 14 1021.5S         2/ 3
WAUKEGAN HARBOR            57     270/  6/ 10   N/A
HARRISON CRIB              59     200/  9/  9   N/A
BURNHAM HARBOR             58     240/  3/  5   N/A
CALUMET HARBOR             55     200/  4/  5 1021.0S
MICHIGAN CITY              53     140/  9/ 11   N/A
MICHIGAN CITY 6N           58 64  180/  8/ 10   N/A           1/ 2
ST. JOSEPH                 60 67  170/  8/ 10   N/A           1/ 2
$$

ILZ025>027-034>036-040-047-049-050-058-095>099-150800-
WEST-CENTRAL ILLINOIS

CITY           SKY/WX    TMP DP  RH WIND       PRES   REMARKS
QUINCY         CLOUDY    60  48  64 CALM      30.15S
GALESBURG*     CLOUDY    55  49  82 SE5       30.16S
MACOMB*        CLOUDY    53  51  95 CALM      30.18F
JACKSONVILLE*  MOCLDY    57  52  82 CALM      30.17F
PITTSFIELD*    CLOUDY    57  51  78 CALM      30.16S
$$

ILZ028>032-037-038-041>044-048-051>054-059>061-150800-
CENTRAL ILLINOIS

CITY           SKY/WX    TMP DP  RH WIND       PRES   REMARKS
PONTIAC        MOCLDY    50  50 100 SE3       30.18F
DECATUR        CLEAR     49  45  86 CALM      30.20S
PEORIA         MOCLDY    56  50  80 CALM      30.17F
LACON*         MOCLDY    53  46  76 N3        30.15F
LINCOLN*       PTCLDY    48  46  90 CALM      30.16F
SPRINGFIELD    MOCLDY    53  49  86 CALM      30.18S
TAYLORVILLE    MOCLDY    50  46  87 SE5       30.18F
$$

ILZ033-039-045-046-055>057-062-063-150800-
EAST-CENTRAL ILLINOIS

CITY           SKY/WX    TMP DP  RH WIND       PRES   REMARKS
CHAMPAIGN      CLEAR     47  44  90 E3        30.20F
DANVILLE*      PTCLDY    46  45  97 CALM      30.18S
RANTOUL*       PTCLDY    50  45  83 CALM      30.21S
MATTOON        CLEAR     50  47  89 S3        30.20S
PARIS*         CLEAR     45  45  99 CALM      30.20S
$$

ILZ079-100>102-150800-
SOUTHWEST ILLINOIS

CITY           SKY/WX    TMP DP  RH WIND       PRES   REMARKS
ALTON          CLEAR     51  49  91 E3        30.18S
CAHOKIA*       CLEAR     54  50  86 SE5       30.17S
SPARTA*        PTCLDY    51  49  92 CALM      30.19F
$$

ILZ064>066-069>071-074>076-080>082-084>086-088>090-092>094-150800-
SOUTH-CENTRAL ILLINOIS

CITY           SKY/WX    TMP DP  RH WIND       PRES   REMARKS
CARBONDALE     PTCLDY    51  49  92 CALM      30.19F
CAIRO*         PTCLDY    55  52  92 CALM      30.18F
EFFINGHAM*     CLEAR     48  46  92 CALM      30.21R
MARION         PTCLDY    55  52  88 CALM      30.20S
MT. VERNON     PTCLDY    46  43  87 CALM      30.20F
CENTRALIA*     CLEAR     48  46  92 CALM      30.19F
SALEM*         CLEAR     50  49  97 SE3       30.20S
METROPOLIS*    PTCLDY    53  53 100 CALM      30.19S
$$

ILZ067-068-072-073-078-083-087-091-150800-
SOUTHEAST ILLINOIS

CITY           SKY/WX    TMP DP  RH WIND       PRES   REMARKS
LAWRENCEVILLE  CLEAR     49  48  97 NW3       30.20S
FLORA*         CLEAR     47  47  97 CALM      30.21S
FAIRFIELD*     PTCLDY   N/A N/A N/A CALM      30.20S
HARRISBURG*    PTCLDY    51  51 100 E3        30.21F
ROBINSON*      CLEAR     47  47  99 CALM      30.22R
CARMI*         PTCLDY    50  50 100 CALM      30.20F
$$

ABBREVIATIONS USED IN REMARKS
   TC - TEMPERATURE IN CELSIUS
  WCI - WIND CHILL INDEX
   HX - HEAT INDEX
  VSB - VISIBILITY
$$



USA.gov is the U.S. government's official web portal to all federal, state and local government web resources and services.